Time,TemperatureF,DewpointF,PressureIn,WindDirection,WindDirectionDegrees,WindSpeedMPH,WindSpeedGustMPH,Humidity,HourlyPrecipIn,Conditions,Clouds,dailyrainin,SoftwareType,DateUTC
2013-07-26 00:04:00,65.8,53.2,29.98,ENE,58,16.0,18.0,64,0.00,,,0.00,meteohub,2013-07-25 11:04:00,
2013-07-26 00:09:00,65.7,53.2,29.98,NE,54,14.0,18.0,64,0.00,,,0.00,meteohub,2013-07-25 11:09:00,
2013-07-26 00:14:00,65.7,53.6,29.97,NE,51,16.0,18.0,65,0.00,,,0.00,meteohub,2013-07-25 11:14:00,
2013-07-26 00:20:00,65.7,53.2,29.97,NE,52,17.0,18.0,64,0.00,,,0.00,meteohub,2013-07-25 11:20:00,
2013-07-26 00:25:00,65.7,53.6,29.97,NE,51,16.0,19.0,65,0.00,,,0.00,meteohub,2013-07-25 11:25:00,
2013-07-26 00:30:00,65.7,54.0,29.98,NE,53,17.0,19.0,66,0.00,,,0.00,meteohub,2013-07-25 11:30:00,
2013-07-26 00:35:00,65.7,54.0,29.98,NE,51,17.0,19.0,66,0.00,,,0.00,meteohub,2013-07-25 11:35:00,
2013-07-26 00:40:00,65.5,53.4,29.98,NE,52,15.0,19.0,65,0.00,,,0.00,meteohub,2013-07-25 11:40:00,
2013-07-26 00:45:00,65.5,53.8,29.98,NE,51,18.0,19.0,66,0.00,,,0.00,meteohub,2013-07-25 11:45:00,
2013-07-26 00:50:00,65.3,53.2,29.98,NE,51,17.0,20.0,65,0.00,,,0.00,meteohub,2013-07-25 11:50:00,
2013-07-26 00:56:00,65.7,52.7,29.98,NE,50,17.0,20.0,63,0.00,,,0.00,meteohub,2013-07-25 11:56:00,
2013-07-26 01:01:00,65.1,52.7,29.98,NE,49,14.0,19.0,64,0.00,,,0.00,meteohub,2013-07-25 12:01:00,
2013-07-26 01:06:00,64.2,53.1,29.98,NE,51,16.0,18.0,67,0.00,,,0.00,meteohub,2013-07-25 12:06:00,
2013-07-26 01:11:00,64.6,53.4,29.98,NE,52,14.0,21.0,67,0.00,,,0.00,meteohub,2013-07-25 12:11:00,
2013-07-26 01:16:00,63.5,53.6,29.98,NE,49,15.0,21.0,70,0.00,,,0.00,meteohub,2013-07-25 12:16:00,
2013-07-26 01:21:00,63.0,53.4,29.98,NE,51,16.0,21.0,71,0.00,,,0.00,meteohub,2013-07-25 12:21:00,
2013-07-26 01:26:00,62.8,54.3,29.98,NE,51,16.0,18.0,74,0.00,,,0.00,meteohub,2013-07-25 12:26:00,
2013-07-26 01:31:00,62.2,54.5,29.98,NE,50,16.0,17.0,76,0.00,,,0.00,meteohub,2013-07-25 12:31:00,
2013-07-26 01:36:00,62.1,55.0,29.98,NE,48,16.0,18.0,78,0.00,,,0.00,meteohub,2013-07-25 12:36:00,
2013-07-26 01:42:00,61.5,54.9,29.98,NE,51,16.0,18.0,79,0.00,,,0.00,meteohub,2013-07-25 12:42:00,
2013-07-26 01:47:00,61.2,54.7,29.98,NE,47,17.0,18.0,79,0.00,,,0.00,meteohub,2013-07-25 12:47:00,
2013-07-26 01:52:00,61.0,54.5,29.98,NE,50,16.0,18.0,79,0.00,,,0.00,meteohub,2013-07-25 12:52:00,
2013-07-26 01:57:00,60.8,54.7,29.99,NE,49,17.0,18.0,80,0.00,,,0.00,meteohub,2013-07-25 12:57:00,
2013-07-26 02:02:00,61.0,54.7,29.98,NE,51,18.0,18.0,80,0.00,,,0.00,meteohub,2013-07-25 13:02:00,
2013-07-26 02:07:00,61.0,54.5,29.99,NE,51,17.0,18.0,79,0.00,,,0.00,meteohub,2013-07-25 13:07:00,
2013-07-26 02:12:00,61.2,54.7,29.99,NE,51,17.0,18.0,79,0.00,,,0.00,meteohub,2013-07-25 13:12:00,
2013-07-26 02:18:00,61.2,54.3,29.99,NE,46,16.0,18.0,78,0.00,,,0.00,meteohub,2013-07-25 13:18:00,
2013-07-26 02:23:00,61.0,54.1,29.99,NE,49,17.0,18.0,78,0.00,,,0.00,meteohub,2013-07-25 13:23:00,
2013-07-26 02:28:00,61.0,53.8,29.99,NE,37,14.0,18.0,77,0.00,,,0.00,meteohub,2013-07-25 13:28:00,
2013-07-26 02:33:00,61.0,54.1,30.00,NE,51,17.0,18.0,78,0.00,,,0.00,meteohub,2013-07-25 13:33:00,
2013-07-26 02:38:00,61.0,53.8,30.00,NE,48,14.0,18.0,77,0.00,,,0.00,meteohub,2013-07-25 13:38:00,
2013-07-26 02:43:00,60.8,54.0,30.00,NE,52,13.0,18.0,78,0.00,,,0.00,meteohub,2013-07-25 13:43:00,
2013-07-26 02:48:00,61.0,54.1,30.00,NE,48,15.0,17.0,78,0.00,,,0.00,meteohub,2013-07-25 13:48:00,
2013-07-26 02:53:00,61.5,54.0,30.00,NE,52,13.0,17.0,76,0.00,,,0.00,meteohub,2013-07-25 13:53:00,
2013-07-26 02:59:00,61.9,53.1,30.00,NE,52,15.0,18.0,73,0.00,,,0.00,meteohub,2013-07-25 13:59:00,
2013-07-26 03:04:00,62.1,52.9,30.00,NE,51,18.0,18.0,72,0.00,,,0.00,meteohub,2013-07-25 14:04:00,
2013-07-26 03:09:00,62.8,53.2,30.00,NE,51,17.0,18.0,71,0.00,,,0.00,meteohub,2013-07-25 14:09:00,
2013-07-26 03:14:00,62.1,53.2,30.01,NNE,33,15.0,18.0,73,0.00,,,0.00,meteohub,2013-07-25 14:14:00,
2013-07-26 03:19:00,61.7,52.9,30.01,NE,49,14.0,18.0,73,0.00,,,0.00,meteohub,2013-07-25 14:19:00,
2013-07-26 03:24:00,61.9,53.1,30.01,NE,56,11.0,18.0,73,0.00,,,0.00,meteohub,2013-07-25 14:24:00,
2013-07-26 03:29:00,62.2,51.6,30.01,ENE,58,14.0,18.0,68,0.00,,,0.00,meteohub,2013-07-25 14:29:00,
2013-07-26 03:35:00,62.2,52.0,30.01,NE,51,14.0,18.0,69,0.00,,,0.00,meteohub,2013-07-25 14:35:00,
2013-07-26 03:40:00,62.4,51.8,30.01,ENE,60,12.0,19.0,68,0.00,,,0.00,meteohub,2013-07-25 14:40:00,
2013-07-26 03:45:00,62.1,51.8,30.02,ENE,57,7.0,19.0,69,0.00,,,0.00,meteohub,2013-07-25 14:45:00,
2013-07-26 03:50:00,62.1,52.2,30.02,ENE,58,9.0,16.0,70,0.00,,,0.00,meteohub,2013-07-25 14:50:00,
2013-07-26 03:55:00,61.9,51.6,30.02,NE,44,12.0,15.0,69,0.00,,,0.00,meteohub,2013-07-25 14:55:00,
2013-07-26 04:01:00,61.9,51.3,30.02,ENE,77,8.0,13.0,68,0.00,,,0.00,meteohub,2013-07-25 15:01:00,
2013-07-26 04:06:00,61.9,52.0,30.03,ENE,62,8.0,13.0,70,0.00,,,0.00,meteohub,2013-07-25 15:06:00,
2013-07-26 04:11:00,61.7,51.1,30.03,ENE,65,8.0,13.0,68,0.00,,,0.00,meteohub,2013-07-25 15:11:00,
2013-07-26 04:16:00,61.9,51.6,30.03,NE,56,4.0,13.0,69,0.00,,,0.00,meteohub,2013-07-25 15:16:00,
2013-07-26 04:22:00,62.8,51.6,30.03,ENE,71,4.0,15.0,67,0.00,,,0.00,meteohub,2013-07-25 15:22:00,
2013-07-26 04:27:00,63.0,51.4,30.03,ENE,63,7.0,15.0,66,0.00,,,0.00,meteohub,2013-07-25 15:27:00,
2013-07-26 04:32:00,62.8,51.6,30.03,ENE,58,10.0,15.0,67,0.00,,,0.00,meteohub,2013-07-25 15:32:00,
2013-07-26 04:37:00,63.0,51.8,30.03,NE,53,11.0,11.0,67,0.00,,,0.00,meteohub,2013-07-25 15:37:00,
2013-07-26 04:42:00,63.1,52.0,30.04,ENE,61,5.0,16.0,67,0.00,,,0.00,meteohub,2013-07-25 15:42:00,
2013-07-26 04:47:00,63.3,52.2,30.03,ENE,58,7.0,16.0,67,0.00,,,0.00,meteohub,2013-07-25 15:47:00,
2013-07-26 04:52:00,63.3,51.4,30.03,ENE,63,9.0,15.0,65,0.00,,,0.00,meteohub,2013-07-25 15:52:00,
2013-07-26 04:57:00,63.9,52.3,30.04,NE,44,13.0,14.0,66,0.00,,,0.00,meteohub,2013-07-25 15:57:00,
2013-07-26 05:02:00,64.6,51.3,30.04,NE,50,12.0,16.0,62,0.00,,,0.00,meteohub,2013-07-25 16:02:00,
2013-07-26 05:07:00,64.6,51.3,30.03,NE,46,15.0,17.0,62,0.00,,,0.00,meteohub,2013-07-25 16:07:00,
2013-07-26 05:13:00,64.4,52.3,30.04,ENE,61,9.0,17.0,65,0.00,,,0.00,meteohub,2013-07-25 16:13:00,
2013-07-26 05:18:00,64.6,52.2,30.03,NE,51,15.0,17.0,64,0.00,,,0.00,meteohub,2013-07-25 16:18:00,
2013-07-26 05:23:00,64.6,50.4,30.03,NE,49,11.0,19.0,60,0.00,,,0.00,meteohub,2013-07-25 16:23:00,
2013-07-26 05:28:00,64.6,51.6,30.04,NE,51,13.0,19.0,63,0.00,,,0.00,meteohub,2013-07-25 16:28:00,
2013-07-26 05:33:00,64.8,51.1,30.03,NE,46,10.0,19.0,61,0.00,,,0.00,meteohub,2013-07-25 16:33:00,
2013-07-26 05:38:00,64.8,49.1,30.03,ENE,59,10.0,19.0,57,0.00,,,0.00,meteohub,2013-07-25 16:38:00,
2013-07-26 05:44:00,65.1,50.9,30.03,ENE,57,14.0,19.0,60,0.00,,,0.00,meteohub,2013-07-25 16:44:00,
2013-07-26 05:49:00,64.9,52.5,30.03,NE,46,18.0,19.0,64,0.00,,,0.00,meteohub,2013-07-25 16:49:00,
2013-07-26 05:54:00,65.3,52.0,30.03,NE,42,15.0,21.0,62,0.00,,,0.00,meteohub,2013-07-25 16:54:00,
2013-07-26 05:59:00,65.7,51.8,30.03,NE,49,12.0,21.0,61,0.00,,,0.00,meteohub,2013-07-25 16:59:00,
2013-07-26 06:04:00,65.8,52.5,30.03,NNE,28,13.0,20.0,62,0.00,,,0.00,meteohub,2013-07-25 17:04:00,
2013-07-26 06:10:00,66.4,51.6,30.03,NNE,32,9.0,19.0,59,0.00,,,0.00,meteohub,2013-07-25 17:10:00,
2013-07-26 06:15:00,66.9,51.6,30.03,NNE,19,9.0,19.0,58,0.00,,,0.00,meteohub,2013-07-25 17:15:00,
2013-07-26 06:20:00,67.3,52.5,30.04,NE,34,12.0,18.0,59,0.00,,,0.00,meteohub,2013-07-25 17:20:00,
2013-07-26 06:25:00,67.6,53.2,30.04,NE,51,9.0,18.0,60,0.00,,,0.00,meteohub,2013-07-25 17:25:00,
2013-07-26 06:30:00,68.2,51.8,30.04,NE,44,8.0,16.0,56,0.00,,,0.00,meteohub,2013-07-25 17:30:00,
2013-07-26 06:35:00,68.7,51.4,30.04,NE,43,12.0,15.0,54,0.00,,,0.00,meteohub,2013-07-25 17:35:00,
2013-07-26 06:40:00,68.9,52.0,30.04,NE,46,12.0,15.0,55,0.00,,,0.00,meteohub,2013-07-25 17:40:00,
2013-07-26 06:46:00,69.3,52.0,30.04,NE,46,14.0,14.0,54,0.00,,,0.00,meteohub,2013-07-25 17:46:00,
2013-07-26 06:51:00,69.6,51.8,30.04,NE,39,11.0,16.0,53,0.00,,,0.00,meteohub,2013-07-25 17:51:00,
2013-07-26 06:56:00,69.8,50.9,30.04,NE,56,15.0,16.0,51,0.00,,,0.00,meteohub,2013-07-25 17:56:00,
2013-07-26 07:01:00,70.3,50.9,30.04,NE,46,14.0,15.0,50,0.00,,,0.00,meteohub,2013-07-25 18:01:00,
2013-07-26 07:06:00,70.5,50.4,30.04,ENE,57,8.0,15.0,49,0.00,,,0.00,meteohub,2013-07-25 18:06:00,
2013-07-26 07:12:00,70.9,50.7,30.04,NE,52,7.0,15.0,49,0.00,,,0.00,meteohub,2013-07-25 18:12:00,
2013-07-26 07:17:00,71.2,50.0,30.04,NE,50,7.0,16.0,47,0.00,,,0.00,meteohub,2013-07-25 18:17:00,
2013-07-26 07:22:00,71.6,50.9,30.04,NE,38,13.0,16.0,48,0.00,,,0.00,meteohub,2013-07-25 18:22:00,
2013-07-26 07:27:00,72.1,50.7,30.04,ENE,58,8.0,16.0,47,0.00,,,0.00,meteohub,2013-07-25 18:27:00,
2013-07-26 07:32:00,72.7,51.8,30.04,NNE,27,12.0,16.0,48,0.00,,,0.00,meteohub,2013-07-25 18:32:00,
2013-07-26 07:37:00,72.7,51.8,30.04,ENE,60,6.0,17.0,48,0.00,,,0.00,meteohub,2013-07-25 18:37:00,
2013-07-26 07:42:00,73.6,52.2,30.04,NE,37,8.0,17.0,47,0.00,,,0.00,meteohub,2013-07-25 18:42:00,
2013-07-26 07:48:00,73.6,51.4,30.04,NE,37,11.0,15.0,46,0.00,,,0.00,meteohub,2013-07-25 18:48:00,
2013-07-26 07:53:00,73.8,51.1,30.04,NNE,20,11.0,17.0,45,0.00,,,0.00,meteohub,2013-07-25 18:53:00,
2013-07-26 07:58:00,74.1,52.0,30.04,NNE,19,9.0,17.0,46,0.00,,,0.00,meteohub,2013-07-25 18:58:00,
2013-07-26 08:03:00,74.7,51.3,30.04,NE,46,13.0,17.0,44,0.00,,,0.00,meteohub,2013-07-25 19:03:00,
2013-07-26 08:08:00,74.7,52.0,30.04,North,10,8.0,17.0,45,0.00,,,0.00,meteohub,2013-07-25 19:08:00,
2013-07-26 08:13:00,74.8,52.2,30.04,NNE,30,3.0,18.0,45,0.00,,,0.00,meteohub,2013-07-25 19:13:00,
2013-07-26 08:18:00,75.4,52.5,30.04,NE,45,15.0,18.0,45,0.00,,,0.00,meteohub,2013-07-25 19:18:00,
2013-07-26 08:24:00,76.1,53.2,30.04,NNE,18,8.0,18.0,45,0.00,,,0.00,meteohub,2013-07-25 19:24:00,
2013-07-26 08:29:00,76.5,51.6,30.04,NNE,22,11.0,17.0,42,0.00,,,0.00,meteohub,2013-07-25 19:29:00,
2013-07-26 08:34:00,76.5,52.3,30.04,North,354,18.0,18.0,43,0.00,,,0.00,meteohub,2013-07-25 19:34:00,
2013-07-26 08:39:00,76.5,51.1,30.04,North,7,11.0,19.0,41,0.00,,,0.00,meteohub,2013-07-25 19:39:00,
2013-07-26 08:44:00,76.8,51.3,30.04,NE,44,11.0,19.0,41,0.00,,,0.00,meteohub,2013-07-25 19:44:00,
2013-07-26 08:49:00,76.8,50.0,30.04,NE,45,18.0,19.0,39,0.00,,,0.00,meteohub,2013-07-25 19:49:00,
2013-07-26 08:54:00,77.2,51.1,30.04,NNE,13,9.0,21.0,40,0.00,,,0.00,meteohub,2013-07-25 19:54:00,
2013-07-26 08:59:00,77.7,50.0,30.04,North,5,12.0,21.0,38,0.00,,,0.00,meteohub,2013-07-25 19:59:00,
2013-07-26 09:04:00,77.9,49.5,30.03,North,2,10.0,21.0,37,0.00,,,0.00,meteohub,2013-07-25 20:04:00,
2013-07-26 09:09:00,78.1,45.9,30.04,NNE,27,15.0,20.0,32,0.00,,,0.00,meteohub,2013-07-25 20:09:00,
2013-07-26 09:14:00,78.1,45.9,30.03,NE,56,11.0,20.0,32,0.00,,,0.00,meteohub,2013-07-25 20:14:00,
2013-07-26 09:19:00,77.9,45.7,30.04,North,11,9.0,20.0,32,0.00,,,0.00,meteohub,2013-07-25 20:19:00,
2013-07-26 09:25:00,78.1,46.6,30.03,NE,39,18.0,20.0,33,0.00,,,0.00,meteohub,2013-07-25 20:25:00,
2013-07-26 09:30:00,78.3,48.4,30.04,North,359,6.0,21.0,35,0.00,,,0.00,meteohub,2013-07-25 20:30:00,
2013-07-26 09:35:00,78.6,48.7,30.03,NE,39,9.0,22.0,35,0.00,,,0.00,meteohub,2013-07-25 20:35:00,
2013-07-26 09:40:00,78.4,47.7,30.04,NNE,14,11.0,22.0,34,0.00,,,0.00,meteohub,2013-07-25 20:40:00,
2013-07-26 09:45:00,79.0,49.8,30.03,North,11,10.0,19.0,36,0.00,,,0.00,meteohub,2013-07-25 20:45:00,
2013-07-26 09:50:00,79.0,48.9,30.03,NNE,22,8.0,19.0,35,0.00,,,0.00,meteohub,2013-07-25 20:50:00,
2013-07-26 09:55:00,79.2,49.8,30.03,North,7,7.0,20.0,36,0.00,,,0.00,meteohub,2013-07-25 20:55:00,
2013-07-26 10:00:00,79.3,48.6,30.03,NNE,19,18.0,20.0,34,0.00,,,0.00,meteohub,2013-07-25 21:00:00,
2013-07-26 10:05:00,79.7,49.6,30.03,NE,34,6.0,18.0,35,0.00,,,0.00,meteohub,2013-07-25 21:05:00,
2013-07-26 10:11:00,79.9,49.8,30.03,NE,35,8.0,19.0,35,0.00,,,0.00,meteohub,2013-07-25 21:11:00,
2013-07-26 10:16:00,79.5,48.7,30.02,NE,46,10.0,20.0,34,0.00,,,0.00,meteohub,2013-07-25 21:16:00,
2013-07-26 10:22:00,80.1,50.0,30.03,NNE,18,10.0,20.0,35,0.00,,,0.00,meteohub,2013-07-25 21:22:00,
2013-07-26 10:27:00,80.4,49.5,30.02,NNE,23,14.0,19.0,34,0.00,,,0.00,meteohub,2013-07-25 21:27:00,
2013-07-26 10:32:00,80.4,48.7,30.02,North,349,15.0,17.0,33,0.00,,,0.00,meteohub,2013-07-25 21:32:00,
2013-07-26 10:37:00,80.6,49.6,30.02,NW,304,6.0,18.0,34,0.00,,,0.00,meteohub,2013-07-25 21:37:00,
2013-07-26 10:42:00,80.8,46.4,30.01,NE,52,14.0,20.0,30,0.00,,,0.00,meteohub,2013-07-25 21:42:00,
2013-07-26 10:48:00,81.0,44.8,30.02,NNE,31,13.0,22.0,28,0.00,,,0.00,meteohub,2013-07-25 21:48:00,
2013-07-26 10:53:00,81.3,48.6,30.01,North,353,11.0,22.0,32,0.00,,,0.00,meteohub,2013-07-25 21:53:00,
2013-07-26 10:58:00,81.1,48.6,30.01,North,6,14.0,22.0,32,0.00,,,0.00,meteohub,2013-07-25 21:58:00,
2013-07-26 11:03:00,81.9,47.3,30.02,NE,46,12.0,22.0,30,0.00,,,0.00,meteohub,2013-07-25 22:03:00,
2013-07-26 11:08:00,81.7,47.3,30.02,NNW,343,11.0,21.0,30,0.00,,,0.00,meteohub,2013-07-25 22:08:00,
2013-07-26 11:13:00,82.0,48.4,30.01,North,7,15.0,22.0,31,0.00,,,0.00,meteohub,2013-07-25 22:13:00,
2013-07-26 11:19:00,81.7,48.9,30.01,NNE,15,15.0,22.0,32,0.00,,,0.00,meteohub,2013-07-25 22:19:00,
2013-07-26 11:24:00,81.9,46.4,30.01,NE,46,19.0,22.0,29,0.00,,,0.00,meteohub,2013-07-25 22:24:00,
2013-07-26 11:29:00,81.7,48.0,30.01,North,355,14.0,22.0,31,0.00,,,0.00,meteohub,2013-07-25 22:29:00,
2013-07-26 11:34:00,81.7,47.3,30.01,North,357,12.0,22.0,30,0.00,,,0.00,meteohub,2013-07-25 22:34:00,
2013-07-26 11:39:00,82.0,46.6,30.01,North,5,8.0,22.0,29,0.00,,,0.00,meteohub,2013-07-25 22:39:00,
2013-07-26 11:44:00,82.6,45.1,30.01,NE,56,13.0,22.0,27,0.00,,,0.00,meteohub,2013-07-25 22:44:00,
2013-07-26 11:49:00,82.6,46.2,30.01,NE,37,10.0,21.0,28,0.00,,,0.00,meteohub,2013-07-25 22:49:00,
2013-07-26 11:55:00,82.6,44.2,30.01,NE,55,9.0,21.0,26,0.00,,,0.00,meteohub,2013-07-25 22:55:00,
2013-07-26 12:00:00,82.8,44.4,30.01,NE,45,8.0,21.0,26,0.00,,,0.00,meteohub,2013-07-25 23:00:00,
2013-07-26 12:05:00,82.8,45.3,30.01,NNE,26,12.0,23.0,27,0.00,,,0.00,meteohub,2013-07-25 23:05:00,
2013-07-26 12:10:00,82.8,44.4,30.01,North,356,19.0,23.0,26,0.00,,,0.00,meteohub,2013-07-25 23:10:00,
2013-07-26 12:15:00,82.8,45.3,30.00,NNE,13,10.0,23.0,27,0.00,,,0.00,meteohub,2013-07-25 23:15:00,
2013-07-26 12:20:00,82.9,43.5,30.00,NNE,17,9.0,20.0,25,0.00,,,0.00,meteohub,2013-07-25 23:20:00,
2013-07-26 12:25:00,82.9,39.0,30.00,North,9,16.0,22.0,21,0.00,,,0.00,meteohub,2013-07-25 23:25:00,
2013-07-26 12:30:00,82.9,42.4,30.00,NNE,24,16.0,22.0,24,0.00,,,0.00,meteohub,2013-07-25 23:30:00,
2013-07-26 12:36:00,82.8,42.3,30.00,NE,50,15.0,21.0,24,0.00,,,0.00,meteohub,2013-07-25 23:36:00,
2013-07-26 12:41:00,82.9,42.4,29.99,NE,37,13.0,21.0,24,0.00,,,0.00,meteohub,2013-07-25 23:41:00,
2013-07-26 12:46:00,82.9,41.4,30.00,NE,34,10.0,23.0,23,0.00,,,0.00,meteohub,2013-07-25 23:46:00,
2013-07-26 12:51:00,83.1,40.3,29.99,NNE,22,18.0,24.0,22,0.00,,,0.00,meteohub,2013-07-25 23:51:00,
2013-07-26 12:56:00,82.9,36.5,29.99,NE,37,12.0,24.0,19,0.00,,,0.00,meteohub,2013-07-25 23:56:00,
2013-07-26 13:01:00,83.1,40.3,29.99,NE,44,15.0,24.0,22,0.00,,,0.00,meteohub,2013-07-26 00:01:00,
2013-07-26 13:07:00,83.5,41.7,29.99,ENE,63,11.0,21.0,23,0.00,,,0.00,meteohub,2013-07-26 00:07:00,
2013-07-26 13:12:00,83.1,40.3,29.99,NE,34,17.0,21.0,22,0.00,,,0.00,meteohub,2013-07-26 00:12:00,
2013-07-26 13:17:00,83.1,37.9,29.99,NNE,31,15.0,24.0,20,0.00,,,0.00,meteohub,2013-07-26 00:17:00,
2013-07-26 13:22:00,83.1,37.9,29.99,NNE,25,10.0,24.0,20,0.00,,,0.00,meteohub,2013-07-26 00:22:00,
2013-07-26 13:27:00,83.1,39.2,29.99,NE,37,19.0,23.0,21,0.00,,,0.00,meteohub,2013-07-26 00:27:00,
2013-07-26 13:32:00,83.1,36.7,29.98,NE,45,23.0,26.0,19,0.00,,,0.00,meteohub,2013-07-26 00:32:00,
2013-07-26 13:38:00,83.3,38.1,29.98,NNE,29,14.0,28.0,20,0.00,,,0.00,meteohub,2013-07-26 00:38:00,
2013-07-26 13:43:00,83.3,38.1,29.98,NNE,27,20.0,28.0,20,0.00,,,0.00,meteohub,2013-07-26 00:43:00,
2013-07-26 13:48:00,83.3,39.4,29.98,NNE,22,15.0,26.0,21,0.00,,,0.00,meteohub,2013-07-26 00:48:00,
2013-07-26 13:53:00,83.1,40.3,29.98,NNE,18,21.0,25.0,22,0.00,,,0.00,meteohub,2013-07-26 00:53:00,
2013-07-26 13:58:00,83.1,39.2,29.99,NNE,32,26.0,27.0,21,0.00,,,0.00,meteohub,2013-07-26 00:58:00,
2013-07-26 14:03:00,83.1,40.3,29.98,NE,39,25.0,27.0,22,0.00,,,0.00,meteohub,2013-07-26 01:03:00,
2013-07-26 14:09:00,82.9,40.1,29.97,NNE,23,17.0,27.0,22,0.00,,,0.00,meteohub,2013-07-26 01:09:00,
2013-07-26 14:14:00,83.1,39.2,29.97,ENE,61,22.0,27.0,21,0.00,,,0.00,meteohub,2013-07-26 01:14:00,
2013-07-26 14:19:00,82.9,40.1,29.97,NNE,25,17.0,27.0,22,0.00,,,0.00,meteohub,2013-07-26 01:19:00,
2013-07-26 14:24:00,82.9,39.0,29.98,NNE,33,12.0,27.0,21,0.00,,,0.00,meteohub,2013-07-26 01:24:00,
2013-07-26 14:29:00,82.9,40.1,29.97,NNE,15,15.0,28.0,22,0.00,,,0.00,meteohub,2013-07-26 01:29:00,
2013-07-26 14:35:00,82.8,41.2,29.98,ENE,61,20.0,28.0,23,0.00,,,0.00,meteohub,2013-07-26 01:35:00,
2013-07-26 14:40:00,82.8,40.1,29.98,NE,53,20.0,28.0,22,0.00,,,0.00,meteohub,2013-07-26 01:40:00,
2013-07-26 14:45:00,82.6,42.1,29.97,NNE,27,16.0,28.0,24,0.00,,,0.00,meteohub,2013-07-26 01:45:00,
2013-07-26 14:50:00,82.6,43.2,29.98,NNE,22,15.0,30.0,25,0.00,,,0.00,meteohub,2013-07-26 01:50:00,
2013-07-26 14:55:00,82.6,43.2,29.98,NNE,23,17.0,30.0,25,0.00,,,0.00,meteohub,2013-07-26 01:55:00,
2013-07-26 15:00:00,82.4,44.1,29.97,NE,51,10.0,30.0,26,0.00,,,0.00,meteohub,2013-07-26 02:00:00,
2013-07-26 15:05:00,82.2,45.0,29.97,NE,51,18.0,27.0,27,0.00,,,0.00,meteohub,2013-07-26 02:05:00,
2013-07-26 15:10:00,82.2,45.0,29.97,ENE,63,18.0,27.0,27,0.00,,,0.00,meteohub,2013-07-26 02:10:00,
2013-07-26 15:15:00,82.0,44.8,29.97,NNE,24,20.0,28.0,27,0.00,,,0.00,meteohub,2013-07-26 02:15:00,
2013-07-26 15:20:00,81.9,45.5,29.97,ENE,59,18.0,28.0,28,0.00,,,0.00,meteohub,2013-07-26 02:20:00,
2013-07-26 15:26:00,81.9,44.6,29.97,NNE,30,15.0,25.0,27,0.00,,,0.00,meteohub,2013-07-26 02:26:00,
2013-07-26 15:31:00,81.7,45.3,29.97,NNE,16,21.0,27.0,28,0.00,,,0.00,meteohub,2013-07-26 02:31:00,
2013-07-26 15:36:00,81.3,45.1,29.97,ENE,58,17.0,27.0,28,0.00,,,0.00,meteohub,2013-07-26 02:36:00,
2013-07-26 15:42:00,81.3,46.0,29.98,NNE,15,17.0,26.0,29,0.00,,,0.00,meteohub,2013-07-26 02:42:00,
2013-07-26 15:47:00,81.1,45.9,29.97,NE,47,16.0,26.0,29,0.00,,,0.00,meteohub,2013-07-26 02:47:00,
2013-07-26 15:52:00,81.0,45.7,29.97,NE,37,15.0,24.0,29,0.00,,,0.00,meteohub,2013-07-26 02:52:00,
2013-07-26 15:57:00,80.8,46.4,29.98,NE,55,18.0,24.0,30,0.00,,,0.00,meteohub,2013-07-26 02:57:00,
2013-07-26 16:02:00,80.6,46.2,29.97,NNE,15,15.0,26.0,30,0.00,,,0.00,meteohub,2013-07-26 03:02:00,
2013-07-26 16:08:00,80.4,46.2,29.97,NNE,27,19.0,26.0,30,0.00,,,0.00,meteohub,2013-07-26 03:08:00,
2013-07-26 16:13:00,80.2,46.0,29.97,NE,37,15.0,26.0,30,0.00,,,0.00,meteohub,2013-07-26 03:13:00,
2013-07-26 16:18:00,80.1,45.9,29.97,NE,50,21.0,28.0,30,0.00,,,0.00,meteohub,2013-07-26 03:18:00,
2013-07-26 16:23:00,79.9,46.6,29.97,NE,48,20.0,28.0,31,0.00,,,0.00,meteohub,2013-07-26 03:23:00,
2013-07-26 16:28:00,79.5,46.2,29.97,NE,45,20.0,28.0,31,0.00,,,0.00,meteohub,2013-07-26 03:28:00,
2013-07-26 16:33:00,79.3,46.0,29.97,NE,46,17.0,29.0,31,0.00,,,0.00,meteohub,2013-07-26 03:33:00,
2013-07-26 16:38:00,79.2,45.1,29.97,NNE,27,20.0,29.0,30,0.00,,,0.00,meteohub,2013-07-26 03:38:00,
2013-07-26 16:43:00,79.0,45.0,29.97,NE,44,16.0,30.0,30,0.00,,,0.00,meteohub,2013-07-26 03:43:00,
2013-07-26 16:49:00,78.6,44.6,29.97,NE,43,24.0,30.0,30,0.00,,,0.00,meteohub,2013-07-26 03:49:00,
2013-07-26 16:54:00,78.6,43.7,29.97,NE,46,15.0,30.0,29,0.00,,,0.00,meteohub,2013-07-26 03:54:00,
2013-07-26 16:59:00,78.4,43.5,29.97,NE,38,22.0,29.0,29,0.00,,,0.00,meteohub,2013-07-26 03:59:00,
2013-07-26 17:01:00,78.3,43.3,29.97,NE,46,20.0,28.0,29,0.00,,,0.00,meteohub,2013-07-26 04:01:00,
2013-07-26 17:02:00,78.3,43.3,29.97,NNE,29,23.0,28.0,29,0.00,,,0.00,meteohub,2013-07-26 04:02:00,
2013-07-26 17:03:00,78.3,43.3,29.98,NE,56,17.0,28.0,29,0.00,,,0.00,meteohub,2013-07-26 04:03:00,
2013-07-26 17:04:00,78.3,42.4,29.98,ENE,68,21.0,28.0,28,0.00,,,0.00,meteohub,2013-07-26 04:04:00,
2013-07-26 17:07:00,78.3,43.3,29.97,NE,38,19.0,28.0,29,0.00,,,0.00,meteohub,2013-07-26 04:07:00,
2013-07-26 17:12:00,77.9,42.3,29.98,NE,46,20.0,28.0,28,0.00,,,0.00,meteohub,2013-07-26 04:12:00,
2013-07-26 17:17:00,77.7,42.1,29.98,NNE,13,18.0,28.0,28,0.00,,,0.00,meteohub,2013-07-26 04:17:00,
2013-07-26 17:22:00,77.5,41.0,29.98,NNE,15,13.0,28.0,27,0.00,,,0.00,meteohub,2013-07-26 04:22:00,
2013-07-26 17:27:00,77.5,41.0,29.98,NNE,22,23.0,27.0,27,0.00,,,0.00,meteohub,2013-07-26 04:27:00,
2013-07-26 17:33:00,77.4,40.8,29.98,ENE,61,19.0,28.0,27,0.00,,,0.00,meteohub,2013-07-26 04:33:00,
2013-07-26 17:38:00,77.0,41.4,29.99,ENE,61,16.0,28.0,28,0.00,,,0.00,meteohub,2013-07-26 04:38:00,
2013-07-26 17:43:00,76.6,41.2,29.98,NNE,21,22.0,27.0,28,0.00,,,0.00,meteohub,2013-07-26 04:43:00,
2013-07-26 17:48:00,76.5,41.9,29.98,NE,37,23.0,28.0,29,0.00,,,0.00,meteohub,2013-07-26 04:48:00,
2013-07-26 17:53:00,76.3,41.7,29.99,NNE,13,20.0,28.0,29,0.00,,,0.00,meteohub,2013-07-26 04:53:00,
2013-07-26 17:59:00,75.7,43.0,29.99,NNE,24,15.0,28.0,31,0.00,,,0.00,meteohub,2013-07-26 04:59:00,
2013-07-26 18:04:00,75.4,43.5,29.99,NE,34,20.0,28.0,32,0.00,,,0.00,meteohub,2013-07-26 05:04:00,
2013-07-26 18:09:00,75.0,44.8,29.99,NNE,32,20.0,28.0,34,0.00,,,0.00,meteohub,2013-07-26 05:09:00,
2013-07-26 18:14:00,74.8,45.3,29.99,North,1,19.0,29.0,35,0.00,,,0.00,meteohub,2013-07-26 05:14:00,
2013-07-26 18:19:00,74.5,46.6,29.98,NE,40,22.0,29.0,37,0.00,,,0.00,meteohub,2013-07-26 05:19:00,
2013-07-26 18:24:00,74.1,46.9,29.99,NE,40,21.0,29.0,38,0.00,,,0.00,meteohub,2013-07-26 05:24:00,
2013-07-26 18:29:00,73.9,48.0,29.99,NNE,19,26.0,29.0,40,0.00,,,0.00,meteohub,2013-07-26 05:29:00,
2013-07-26 18:34:00,73.8,48.6,29.99,NE,34,23.0,29.0,41,0.00,,,0.00,meteohub,2013-07-26 05:34:00,
2013-07-26 18:39:00,73.8,49.3,29.98,NNE,22,21.0,29.0,42,0.00,,,0.00,meteohub,2013-07-26 05:39:00,
2013-07-26 18:45:00,73.4,48.9,29.99,NE,39,23.0,29.0,42,0.00,,,0.00,meteohub,2013-07-26 05:45:00,
2013-07-26 18:50:00,73.2,49.5,29.99,NNE,23,26.0,29.0,43,0.00,,,0.00,meteohub,2013-07-26 05:50:00,
2013-07-26 18:55:00,72.9,49.1,29.99,NE,39,18.0,29.0,43,0.00,,,0.00,meteohub,2013-07-26 05:55:00,
2013-07-26 19:00:00,72.7,49.5,29.99,NE,40,21.0,29.0,44,0.00,,,0.00,meteohub,2013-07-26 06:00:00,
2013-07-26 19:06:00,72.3,49.8,29.99,NE,41,23.0,28.0,45,0.00,,,0.00,meteohub,2013-07-26 06:06:00,
2013-07-26 19:11:00,72.0,51.3,29.98,NNE,23,24.0,28.0,48,0.00,,,0.00,meteohub,2013-07-26 06:11:00,
2013-07-26 19:16:00,71.8,52.2,29.99,North,7,14.0,30.0,50,0.00,,,0.00,meteohub,2013-07-26 06:16:00,
2013-07-26 19:21:00,71.4,51.8,29.99,NNE,27,20.0,30.0,50,0.00,,,0.00,meteohub,2013-07-26 06:21:00,
2013-07-26 19:26:00,71.2,52.2,30.00,North,1,27.0,30.0,51,0.00,,,0.00,meteohub,2013-07-26 06:26:00,
2013-07-26 19:31:00,71.1,52.5,29.99,NE,45,18.0,29.0,52,0.00,,,0.00,meteohub,2013-07-26 06:31:00,
2013-07-26 19:36:00,70.9,52.3,30.00,NNE,20,21.0,29.0,52,0.00,,,0.00,meteohub,2013-07-26 06:36:00,
2013-07-26 19:42:00,70.5,52.5,30.00,NNE,23,23.0,29.0,53,0.00,,,0.00,meteohub,2013-07-26 06:42:00,
2013-07-26 19:47:00,70.2,52.2,30.00,NNE,15,19.0,30.0,53,0.00,,,0.00,meteohub,2013-07-26 06:47:00,
2013-07-26 19:52:00,70.2,52.7,29.99,NNE,25,25.0,30.0,54,0.00,,,0.00,meteohub,2013-07-26 06:52:00,
2013-07-26 19:57:00,69.8,52.3,30.00,NE,46,17.0,30.0,54,0.00,,,0.00,meteohub,2013-07-26 06:57:00,
2013-07-26 20:02:00,69.6,52.7,30.00,NNE,27,24.0,30.0,55,0.00,,,0.00,meteohub,2013-07-26 07:02:00,
2013-07-26 20:07:00,69.4,52.5,30.00,NNE,26,22.0,30.0,55,0.00,,,0.00,meteohub,2013-07-26 07:07:00,
2013-07-26 20:12:00,69.1,52.2,30.00,NE,35,21.0,29.0,55,0.00,,,0.00,meteohub,2013-07-26 07:12:00,
2013-07-26 20:18:00,68.9,52.0,30.00,NNE,16,20.0,29.0,55,0.00,,,0.00,meteohub,2013-07-26 07:18:00,
2013-07-26 20:23:00,68.7,52.0,29.99,NE,41,11.0,29.0,55,0.00,,,0.00,meteohub,2013-07-26 07:23:00,
2013-07-26 20:28:00,68.4,51.6,30.00,NE,40,21.0,29.0,55,0.00,,,0.00,meteohub,2013-07-26 07:28:00,
2013-07-26 20:33:00,68.2,51.4,30.00,ENE,57,22.0,28.0,55,0.00,,,0.00,meteohub,2013-07-26 07:33:00,
2013-07-26 20:38:00,68.0,51.3,30.00,NNE,26,24.0,28.0,55,0.00,,,0.00,meteohub,2013-07-26 07:38:00,
2013-07-26 20:43:00,67.6,51.4,30.01,NE,42,26.0,28.0,56,0.00,,,0.00,meteohub,2013-07-26 07:43:00,
2013-07-26 20:48:00,67.5,51.3,30.00,NE,46,21.0,26.0,56,0.00,,,0.00,meteohub,2013-07-26 07:48:00,
2013-07-26 20:53:00,67.3,51.1,30.00,NNE,32,20.0,27.0,56,0.00,,,0.00,meteohub,2013-07-26 07:53:00,
2013-07-26 20:58:00,67.1,50.9,30.00,NNE,32,23.0,27.0,56,0.00,,,0.00,meteohub,2013-07-26 07:58:00,
2013-07-26 21:03:00,66.9,50.7,30.00,NE,37,22.0,28.0,56,0.00,,,0.00,meteohub,2013-07-26 08:03:00,
2013-07-26 21:09:00,66.7,50.5,30.00,NE,36,18.0,28.0,56,0.00,,,0.00,meteohub,2013-07-26 08:09:00,
2013-07-26 21:14:00,66.7,50.5,30.00,NE,42,23.0,28.0,56,0.00,,,0.00,meteohub,2013-07-26 08:14:00,
2013-07-26 21:19:00,66.6,50.9,30.01,NNE,27,19.0,28.0,57,0.00,,,0.00,meteohub,2013-07-26 08:19:00,
2013-07-26 21:24:00,66.4,50.7,30.01,NE,41,23.0,27.0,57,0.00,,,0.00,meteohub,2013-07-26 08:24:00,
2013-07-26 21:29:00,66.4,51.1,30.01,NE,38,17.0,27.0,58,0.00,,,0.00,meteohub,2013-07-26 08:29:00,
2013-07-26 21:34:00,66.2,50.9,30.01,NNE,30,20.0,25.0,58,0.00,,,0.00,meteohub,2013-07-26 08:34:00,
2013-07-26 21:40:00,66.0,50.9,30.01,NE,41,19.0,26.0,58,0.00,,,0.00,meteohub,2013-07-26 08:40:00,
2013-07-26 21:45:00,65.8,50.7,30.01,NE,47,15.0,26.0,58,0.00,,,0.00,meteohub,2013-07-26 08:45:00,
2013-07-26 21:51:00,65.7,50.5,30.01,NE,45,21.0,24.0,58,0.00,,,0.00,meteohub,2013-07-26 08:51:00,
2013-07-26 21:56:00,65.7,50.5,30.01,NE,51,21.0,24.0,58,0.00,,,0.00,meteohub,2013-07-26 08:56:00,
2013-07-26 22:01:00,65.7,50.5,30.01,NE,46,21.0,24.0,58,0.00,,,0.00,meteohub,2013-07-26 09:01:00,
2013-07-26 22:07:00,65.3,50.2,30.01,NE,44,19.0,24.0,58,0.00,,,0.00,meteohub,2013-07-26 09:07:00,
2013-07-26 22:12:00,65.1,50.4,30.01,NE,43,19.0,24.0,59,0.00,,,0.00,meteohub,2013-07-26 09:12:00,
2013-07-26 22:17:00,64.9,50.2,30.01,NNE,20,19.0,24.0,59,0.00,,,0.00,meteohub,2013-07-26 09:17:00,
2013-07-26 22:22:00,64.8,50.2,30.02,NE,38,16.0,24.0,59,0.00,,,0.00,meteohub,2013-07-26 09:22:00,
2013-07-26 22:27:00,64.8,50.5,30.02,NNE,23,21.0,24.0,60,0.00,,,0.00,meteohub,2013-07-26 09:27:00,
2013-07-26 22:32:00,64.6,50.0,30.02,NE,37,21.0,24.0,59,0.00,,,0.00,meteohub,2013-07-26 09:32:00,
2013-07-26 22:37:00,64.6,50.4,30.02,NNE,31,18.0,24.0,60,0.00,,,0.00,meteohub,2013-07-26 09:37:00,
2013-07-26 22:42:00,64.4,50.2,30.03,NE,49,20.0,24.0,60,0.00,,,0.00,meteohub,2013-07-26 09:42:00,
2013-07-26 22:48:00,64.2,50.0,30.03,NE,51,17.0,23.0,60,0.00,,,0.00,meteohub,2013-07-26 09:48:00,
2013-07-26 22:53:00,63.9,49.6,30.02,NE,51,19.0,22.0,60,0.00,,,0.00,meteohub,2013-07-26 09:53:00,
2013-07-26 22:58:00,63.9,50.2,30.02,NE,49,21.0,22.0,61,0.00,,,0.00,meteohub,2013-07-26 09:58:00,
2013-07-26 23:03:00,63.5,49.8,30.02,NE,34,17.0,23.0,61,0.00,,,0.00,meteohub,2013-07-26 10:03:00,
2013-07-26 23:08:00,63.3,49.6,30.02,NE,34,19.0,24.0,61,0.00,,,0.00,meteohub,2013-07-26 10:08:00,
2013-07-26 23:14:00,63.3,49.3,30.02,NNE,30,17.0,24.0,60,0.00,,,0.00,meteohub,2013-07-26 10:14:00,
2013-07-26 23:19:00,63.3,49.6,30.02,NE,40,23.0,24.0,61,0.00,,,0.00,meteohub,2013-07-26 10:19:00,
2013-07-26 23:24:00,63.1,49.5,30.02,NE,52,20.0,24.0,61,0.00,,,0.00,meteohub,2013-07-26 10:24:00,
2013-07-26 23:29:00,63.0,49.3,30.02,NE,49,21.0,24.0,61,0.00,,,0.00,meteohub,2013-07-26 10:29:00,
2013-07-26 23:34:00,63.0,49.3,30.02,NE,50,22.0,24.0,61,0.00,,,0.00,meteohub,2013-07-26 10:34:00,
2013-07-26 23:40:00,62.8,49.1,30.02,NE,40,17.0,24.0,61,0.00,,,0.00,meteohub,2013-07-26 10:40:00,
2013-07-26 23:45:00,62.8,49.1,30.03,NE,42,19.0,24.0,61,0.00,,,0.00,meteohub,2013-07-26 10:45:00,
2013-07-26 23:50:00,62.8,49.1,30.02,NE,37,15.0,24.0,61,0.00,,,0.00,meteohub,2013-07-26 10:50:00,
2013-07-26 23:55:00,62.8,49.1,30.03,NE,50,16.0,23.0,61,0.00,,,0.00,meteohub,2013-07-26 10:55:00,